Flag for Switzerland Weather past 2 weeks in Davos, Graubünden, Switzerland

Now
65 °F

Partly sunny.


Feels Like: 65 °F
Forecast: 51 / 67 °F
Wind: 2 mph from North

Location: Chur-Ems

Current Time: Aug 1, 2015 at 2:43:27 PM

Latest Report: Aug 1, 2015 at 2:00 PM


Visibility: 13 mi

Pressure: 29.98 "Hg (25.03 "Hg at 1540m altitude)

Humidity: 77%

Dew point: 58 °F

Location of DavosLocation

Historic Weather in Davos — Graph

°F

Davos temperature yesterday

Maximum temperature yesterday: 76 °F (at 5:00 PM)
Minimum temperature yesterday: 51 °F (at 7:00 AM)
Average temperature yesterday: 65 °F

Past Weeks' High & Low Weather Summary

 TemperatureHumidityPressure
High92 °F (Jul 22, 4:00 PM)96% (Jul 27, 1:00 AM)30.22 "Hg (Jul 27, 1:00 AM)
Low51 °F (Jul 31, 7:00 AM)31% (Jul 17, 2:00 PM)29.65 "Hg (Jul 24, 7:00 PM)
Average69 °F66%29.92 "Hg
* Reported Jul 17 2:00 PM — Aug 1 1:00 PM, Davos, Weather by CustomWeather, © 2015

Note: Actual official high and low records may vary slightly from our data, if they occured in-between our weather recording intervals... More about our weather records

Advertising

Davos weather history for previous 24 hours

 ConditionsComfort  
Time TempWeatherWind HumidityBarometerVisibility
1:00 PM
Sat, Aug 1
64 °FMild.5 mph84%30.00 "HgN/A
12:00 PM60 °FCool.5 mph90%30.03 "HgN/A
11:00 AM59 °FLight rain. Overcast.7 mph94%30.02 "Hg5 mi
10:00 AM60 °FCool.10 mph89%30.00 "HgN/A
9:00 AM61 °FCool.7 mph89%29.97 "HgN/A
8:00 AM62 °FOvercast.1 mph84%29.91 "Hg12 mi
7:00 AM66 °FMild.3 mph61%29.87 "HgN/A
4:00 AM66 °FMild.5 mph60%29.88 "HgN/A
3:00 AM68 °FMild.8 mph51%29.87 "HgN/A
2:00 AM67 °FPassing clouds.8 mph56%29.88 "Hg10 mi
1:00 AM66 °FMild.6 mph58%29.90 "HgN/A
12:00 AM65 °FMild.5 mph61%29.90 "HgN/A
10:00 PM
Fri, Jul 31
63 °FMild.No wind69%29.90 "HgN/A
9:00 PM66 °FMild.1 mph59%29.88 "HgN/A
8:00 PM70 °FMild.5 mph50%29.86 "HgN/A
7:00 PM72 °FMild.8 mph45%29.83 "HgN/A
6:00 PM74 °FMild.14 mph42%29.83 "HgN/A
5:00 PM76 °FOvercast.14 mph41%29.83 "Hg12 mi
4:00 PM75 °FMild.14 mph39%29.83 "HgN/A
3:00 PM75 °FMild.13 mph39%29.85 "HgN/A
2:00 PM74 °FMild.10 mph41%29.85 "HgN/A
Weather by CustomWeather, © 2015

See weather overviewHow to use our weather pages